Time,TemperatureF,DewpointF,PressureIn,WindDirection,WindDirectionDegrees,WindSpeedMPH,WindSpeedGustMPH,Humidity,HourlyPrecipIn,Conditions,Clouds,dailyrainin,SoftwareType,DateUTC
2013-06-04 00:03:00,74.0,74.0,30.02,NW,308,2.0,3.0,100,99.99,,,-99.99,,2013-06-04 04:03:00,
2013-06-04 00:13:00,74.0,74.0,30.02,NW,308,2.0,3.0,100,99.99,,,-99.99,,2013-06-04 04:13:00,
2013-06-04 00:23:00,74.0,74.0,30.01,North,0,0.0,0.0,100,99.99,,,-99.99,,2013-06-04 04:23:00,
2013-06-04 00:33:00,74.0,74.0,30.01,North,0,0.0,0.0,100,99.99,,,-99.99,,2013-06-04 04:33:00,
2013-06-04 00:42:00,74.0,74.0,30.01,North,0,0.0,0.0,100,99.99,,,-99.99,,2013-06-04 04:42:00,
2013-06-04 00:53:00,74.0,74.0,30.01,North,0,0.0,0.0,100,99.99,,,-99.99,,2013-06-04 04:53:00,
2013-06-04 01:02:00,74.0,74.0,30.00,West,267,0.0,2.0,100,99.99,,,-99.99,,2013-06-04 05:02:00,
2013-06-04 01:12:00,74.0,74.0,30.00,West,267,0.0,2.0,100,99.99,,,-99.99,,2013-06-04 05:12:00,
2013-06-04 01:22:00,74.0,74.0,30.00,South,183,2.0,4.0,100,99.99,,,-99.99,,2013-06-04 05:22:00,
2013-06-04 01:32:00,74.0,74.0,30.00,South,177,1.0,5.0,100,99.99,,,-99.99,,2013-06-04 05:32:00,
2013-06-04 01:42:00,74.0,74.0,30.00,South,177,1.0,5.0,100,99.99,,,-99.99,,2013-06-04 05:42:00,
2013-06-04 01:52:00,74.0,74.0,30.00,North,0,0.0,0.0,100,99.99,,,-99.99,,2013-06-04 05:52:00,
2013-06-04 02:02:00,74.0,74.0,29.99,North,0,0.0,0.0,100,99.99,,,-99.99,,2013-06-04 06:02:00,
2013-06-04 02:12:00,74.0,74.0,29.99,North,0,0.0,0.0,100,99.99,,,-99.99,,2013-06-04 06:12:00,
2013-06-04 02:22:00,74.0,74.0,29.99,North,0,0.0,0.0,100,99.99,,,-99.99,,2013-06-04 06:22:00,
2013-06-04 02:32:00,74.0,74.0,29.98,North,0,0.0,0.0,100,99.99,,,-99.99,,2013-06-04 06:32:00,
2013-06-04 02:42:00,74.0,74.0,29.98,North,0,0.0,0.0,100,99.99,,,-99.99,,2013-06-04 06:42:00,
2013-06-04 02:52:00,74.0,74.0,29.98,South,179,2.0,4.0,100,99.99,,,-99.99,,2013-06-04 06:52:00,
2013-06-04 03:02:00,74.0,74.0,29.98,North,0,0.0,0.0,100,99.99,,,-99.99,,2013-06-04 07:02:00,
2013-06-04 03:12:00,74.0,74.0,29.98,North,0,0.0,0.0,100,99.99,,,-99.99,,2013-06-04 07:12:00,
2013-06-04 03:22:00,74.0,74.0,29.97,South,186,2.0,4.0,100,99.99,,,-99.99,,2013-06-04 07:22:00,
2013-06-04 03:32:00,74.0,74.0,29.97,SSW,195,2.0,4.0,100,99.99,,,-99.99,,2013-06-04 07:32:00,
2013-06-04 03:42:00,74.0,74.0,29.97,SSW,195,2.0,4.0,100,99.99,,,-99.99,,2013-06-04 07:42:00,
2013-06-04 03:52:00,73.0,73.0,29.96,SSW,200,3.0,6.0,100,99.99,,,-99.99,,2013-06-04 07:52:00,
2013-06-04 04:02:00,73.0,73.0,29.96,SSW,193,2.0,5.0,100,99.99,,,-99.99,,2013-06-04 08:02:00,
2013-06-04 04:12:00,73.0,73.0,29.96,South,181,1.0,4.0,100,99.99,,,-99.99,,2013-06-04 08:12:00,
2013-06-04 04:22:00,73.0,73.0,29.96,South,181,1.0,4.0,100,99.99,,,-99.99,,2013-06-04 08:22:00,
2013-06-04 04:32:00,73.0,73.0,29.96,North,0,0.0,0.0,100,99.99,,,-99.99,,2013-06-04 08:32:00,
2013-06-04 04:42:00,73.0,73.0,29.96,North,0,0.0,0.0,100,99.99,,,-99.99,,2013-06-04 08:42:00,
2013-06-04 04:52:00,73.0,73.0,29.96,North,0,0.0,0.0,100,99.99,,,-99.99,,2013-06-04 08:52:00,
2013-06-04 05:02:00,73.0,73.0,29.96,North,0,0.0,0.0,100,99.99,,,-99.99,,2013-06-04 09:02:00,
2013-06-04 05:12:00,73.0,73.0,29.96,North,0,0.0,0.0,100,99.99,,,-99.99,,2013-06-04 09:12:00,
2013-06-04 05:22:00,73.0,73.0,29.97,SSW,203,2.0,4.0,100,99.99,,,-99.99,,2013-06-04 09:22:00,
2013-06-04 05:33:00,73.0,73.0,29.96,SSW,194,1.0,3.0,100,99.99,,,-99.99,,2013-06-04 09:33:00,
2013-06-04 05:43:00,73.0,73.0,29.96,SSW,194,1.0,3.0,100,99.99,,,-99.99,,2013-06-04 09:43:00,
2013-06-04 05:53:00,73.0,73.0,29.96,SW,226,3.0,4.0,100,99.99,,,-99.99,,2013-06-04 09:53:00,
2013-06-04 06:02:00,73.0,73.0,29.96,SSW,204,3.0,6.0,100,99.99,,,-99.99,,2013-06-04 10:02:00,
2013-06-04 06:12:00,73.0,73.0,29.96,SSW,204,3.0,6.0,100,99.99,,,-99.99,,2013-06-04 10:12:00,
2013-06-04 06:23:00,73.0,73.0,29.96,SSW,197,4.0,6.0,100,99.99,,,-99.99,,2013-06-04 10:23:00,
2013-06-04 06:33:00,73.0,73.0,29.97,SW,228,5.0,8.0,100,99.99,,,-99.99,,2013-06-04 10:33:00,
2013-06-04 06:42:00,73.0,73.0,29.97,SW,232,5.0,7.0,100,99.99,,,-99.99,,2013-06-04 10:42:00,
2013-06-04 06:53:00,73.0,73.0,29.97,SW,232,5.0,7.0,100,99.99,,,-99.99,,2013-06-04 10:53:00,
2013-06-04 07:02:00,73.0,73.0,29.97,WSW,239,2.0,6.0,100,99.99,,,-99.99,,2013-06-04 11:02:00,
2013-06-04 07:12:00,73.0,73.0,29.97,WSW,239,2.0,6.0,100,99.99,,,-99.99,,2013-06-04 11:12:00,
2013-06-04 07:22:00,73.0,73.0,29.98,WSW,242,4.0,6.0,100,99.99,,,-99.99,,2013-06-04 11:22:00,
2013-06-04 07:32:00,73.0,73.0,29.98,SW,229,4.0,6.0,100,99.99,,,-99.99,,2013-06-04 11:32:00,
2013-06-04 07:42:00,73.0,73.0,29.98,SW,229,4.0,6.0,100,99.99,,,-99.99,,2013-06-04 11:42:00,
2013-06-04 07:52:00,74.0,74.0,29.98,North,0,0.0,0.0,100,99.99,,,-99.99,,2013-06-04 11:52:00,
2013-06-04 08:02:00,74.0,74.0,29.99,NW,305,0.0,2.0,100,99.99,,,-99.99,,2013-06-04 12:02:00,
2013-06-04 08:12:00,74.0,74.0,29.99,NW,305,0.0,2.0,100,99.99,,,-99.99,,2013-06-04 12:12:00,
2013-06-04 08:22:00,74.0,74.0,29.99,North,0,0.0,0.0,100,99.99,,,-99.99,,2013-06-04 12:22:00,
2013-06-04 08:32:00,74.0,74.0,29.99,WNW,298,0.0,3.0,100,99.99,,,-99.99,,2013-06-04 12:32:00,
2013-06-04 08:42:00,74.0,74.0,29.99,WNW,298,0.0,3.0,100,99.99,,,-99.99,,2013-06-04 12:42:00,
2013-06-04 08:53:00,75.0,75.0,30.00,West,273,3.0,6.0,100,99.99,,,-99.99,,2013-06-04 12:53:00,
2013-06-04 09:03:00,75.0,75.0,30.00,West,267,3.0,5.0,100,99.99,,,-99.99,,2013-06-04 13:03:00,
2013-06-04 09:12:00,77.0,76.0,30.01,WSW,252,3.0,7.0,98,99.99,,,-99.99,,2013-06-04 13:12:00,
2013-06-04 09:22:00,77.0,76.0,30.01,WSW,252,3.0,7.0,98,99.99,,,-99.99,,2013-06-04 13:22:00,
2013-06-04 09:32:00,78.0,76.0,30.01,WSW,257,4.0,7.0,94,99.99,,,-99.99,,2013-06-04 13:32:00,
2013-06-04 09:42:00,78.0,76.0,30.01,WSW,257,4.0,7.0,94,99.99,,,-99.99,,2013-06-04 13:42:00,
2013-06-04 09:52:00,78.0,74.0,30.02,West,267,3.0,6.0,89,99.99,,,-99.99,,2013-06-04 13:52:00,
2013-06-04 10:02:00,79.0,74.0,30.02,SW,225,3.0,6.0,84,99.99,,,-99.99,,2013-06-04 14:02:00,
2013-06-04 10:12:00,79.0,74.0,30.02,SW,225,3.0,6.0,84,99.99,,,-99.99,,2013-06-04 14:12:00,
2013-06-04 10:22:00,80.0,74.0,30.02,SW,236,0.0,3.0,82,99.99,,,-99.99,,2013-06-04 14:22:00,
2013-06-04 10:32:00,80.0,72.0,30.03,SW,231,2.0,5.0,78,99.99,,,-99.99,,2013-06-04 14:32:00,
2013-06-04 10:42:00,80.0,72.0,30.03,SW,231,2.0,5.0,78,99.99,,,-99.99,,2013-06-04 14:42:00,
2013-06-04 10:52:00,81.0,72.0,30.02,SSW,203,1.0,3.0,75,99.99,,,-99.99,,2013-06-04 14:52:00,
2013-06-04 11:02:00,82.0,72.0,30.03,South,186,1.0,3.0,71,99.99,,,-99.99,,2013-06-04 15:02:00,
2013-06-04 11:12:00,83.0,72.0,30.03,SSW,198,1.0,5.0,69,99.99,,,-99.99,,2013-06-04 15:12:00,
2013-06-04 11:22:00,83.0,72.0,30.03,SSW,198,1.0,5.0,69,99.99,,,-99.99,,2013-06-04 15:22:00,
2013-06-04 11:33:00,84.0,72.0,30.03,South,187,1.0,4.0,67,99.99,,,-99.99,,2013-06-04 15:33:00,
2013-06-04 11:42:00,84.0,72.0,30.03,South,187,1.0,4.0,67,99.99,,,-99.99,,2013-06-04 15:42:00,
2013-06-04 11:53:00,83.0,72.0,30.04,SSW,203,3.0,5.0,69,99.99,,,-99.99,,2013-06-04 15:53:00,
2013-06-04 12:03:00,82.0,71.0,30.04,SSW,197,5.0,8.0,70,99.99,,,-99.99,,2013-06-04 16:03:00,
2013-06-04 12:13:00,81.0,71.0,30.05,SSW,195,8.0,12.0,71,99.99,,,-99.99,,2013-06-04 16:13:00,
2013-06-04 12:23:00,81.0,71.0,30.05,SSW,195,8.0,12.0,71,99.99,,,-99.99,,2013-06-04 16:23:00,
2013-06-04 12:33:00,81.0,70.0,30.05,SSW,211,9.0,13.0,69,99.99,,,-99.99,,2013-06-04 16:33:00,
2013-06-04 12:42:00,81.0,70.0,30.05,SSW,211,9.0,13.0,69,99.99,,,-99.99,,2013-06-04 16:42:00,
2013-06-04 12:53:00,81.0,71.0,30.05,SSW,207,10.0,14.0,71,99.99,,,-99.99,,2013-06-04 16:53:00,
2013-06-04 13:03:00,82.0,71.0,30.04,SSW,195,8.0,14.0,69,99.99,,,-99.99,,2013-06-04 17:03:00,
2013-06-04 13:12:00,82.0,71.0,30.04,SSW,195,8.0,14.0,69,99.99,,,-99.99,,2013-06-04 17:12:00,
2013-06-04 13:23:00,82.0,70.0,30.04,SW,214,9.0,14.0,68,99.99,,,-99.99,,2013-06-04 17:23:00,
2013-06-04 13:33:00,81.0,69.0,30.03,SSW,207,7.0,13.0,67,99.99,,,-99.99,,2013-06-04 17:33:00,
2013-06-04 13:42:00,81.0,69.0,30.03,SSW,207,7.0,13.0,67,99.99,,,-99.99,,2013-06-04 17:42:00,
2013-06-04 13:52:00,80.0,68.0,30.03,SW,221,5.0,8.0,68,99.99,,,-99.99,,2013-06-04 17:52:00,
2013-06-04 14:02:00,79.0,68.0,30.03,SW,233,6.0,9.0,69,99.99,,,-99.99,,2013-06-04 18:02:00,
2013-06-04 14:12:00,80.0,69.0,30.02,SSW,197,7.0,10.0,69,99.99,,,-99.99,,2013-06-04 18:12:00,
2013-06-04 14:22:00,80.0,69.0,30.02,SSW,197,7.0,10.0,69,99.99,,,-99.99,,2013-06-04 18:22:00,
2013-06-04 14:32:00,80.0,68.0,30.02,SSE,163,6.0,11.0,68,99.99,,,-99.99,,2013-06-04 18:32:00,
2013-06-04 14:42:00,80.0,68.0,30.02,SSE,163,6.0,11.0,68,99.99,,,-99.99,,2013-06-04 18:42:00,
2013-06-04 14:53:00,80.0,68.0,30.01,SSW,204,7.0,12.0,68,99.99,,,-99.99,,2013-06-04 18:53:00,
2013-06-04 15:02:00,81.0,70.0,30.01,SSE,159,6.0,10.0,69,99.99,,,-99.99,,2013-06-04 19:02:00,
2013-06-04 15:12:00,81.0,70.0,30.01,SSE,159,6.0,10.0,69,99.99,,,-99.99,,2013-06-04 19:12:00,
2013-06-04 15:22:00,82.0,70.0,30.00,SSW,204,5.0,7.0,67,99.99,,,-99.99,,2013-06-04 19:22:00,
2013-06-04 15:32:00,81.0,69.0,30.01,SSW,204,5.0,8.0,68,99.99,,,-99.99,,2013-06-04 19:32:00,
2013-06-04 15:42:00,81.0,69.0,30.01,SSW,204,5.0,8.0,68,99.99,,,-99.99,,2013-06-04 19:42:00,
2013-06-04 15:52:00,81.0,70.0,30.00,SSW,200,4.0,7.0,70,99.99,,,-99.99,,2013-06-04 19:52:00,
2013-06-04 16:03:00,82.0,70.0,30.00,SSW,203,4.0,7.0,68,99.99,,,-99.99,,2013-06-04 20:03:00,
2013-06-04 16:12:00,82.0,70.0,30.00,SSW,203,4.0,7.0,68,99.99,,,-99.99,,2013-06-04 20:12:00,
2013-06-04 16:22:00,82.0,70.0,30.00,SW,233,5.0,9.0,67,99.99,,,-99.99,,2013-06-04 20:22:00,
2013-06-04 16:32:00,83.0,70.0,30.00,WSW,240,4.0,6.0,66,99.99,,,-99.99,,2013-06-04 20:32:00,
2013-06-04 16:42:00,83.0,70.0,30.00,WSW,240,4.0,6.0,66,99.99,,,-99.99,,2013-06-04 20:42:00,
2013-06-04 16:53:00,83.0,70.0,29.99,SW,221,5.0,10.0,66,99.99,,,-99.99,,2013-06-04 20:53:00,
2013-06-04 17:02:00,83.0,71.0,29.99,SW,231,3.0,4.0,67,99.99,,,-99.99,,2013-06-04 21:02:00,
2013-06-04 17:12:00,83.0,71.0,29.99,SW,231,3.0,4.0,67,99.99,,,-99.99,,2013-06-04 21:12:00,
2013-06-04 17:22:00,82.0,70.0,29.99,SSW,207,4.0,5.0,67,99.99,,,-99.99,,2013-06-04 21:22:00,
2013-06-04 17:33:00,82.0,70.0,29.99,SSW,208,3.0,5.0,68,99.99,,,-99.99,,2013-06-04 21:33:00,
2013-06-04 17:42:00,82.0,70.0,29.99,SSW,208,3.0,5.0,68,99.99,,,-99.99,,2013-06-04 21:42:00,
2013-06-04 17:53:00,81.0,70.0,29.99,South,187,2.0,4.0,69,99.99,,,-99.99,,2013-06-04 21:53:00,
2013-06-04 18:02:00,81.0,70.0,29.99,SW,229,2.0,4.0,70,99.99,,,-99.99,,2013-06-04 22:02:00,
2013-06-04 18:13:00,81.0,70.0,29.99,SW,229,2.0,4.0,70,99.99,,,-99.99,,2013-06-04 22:13:00,
2013-06-04 18:22:00,81.0,70.0,29.99,South,190,2.0,5.0,70,99.99,,,-99.99,,2013-06-04 22:22:00,
2013-06-04 18:32:00,80.0,70.0,29.99,SE,146,1.0,4.0,71,99.99,,,-99.99,,2013-06-04 22:32:00,
2013-06-04 18:42:00,80.0,70.0,29.99,SE,146,1.0,4.0,71,99.99,,,-99.99,,2013-06-04 22:42:00,
2013-06-04 18:52:00,80.0,70.0,29.99,North,0,0.0,0.0,72,99.99,,,-99.99,,2013-06-04 22:52:00,
2013-06-04 19:02:00,80.0,71.0,29.99,North,0,0.0,0.0,73,99.99,,,-99.99,,2013-06-04 23:02:00,
2013-06-04 19:12:00,80.0,71.0,29.99,North,0,0.0,0.0,73,99.99,,,-99.99,,2013-06-04 23:12:00,
2013-06-04 19:22:00,80.0,71.0,29.99,North,0,0.0,0.0,73,99.99,,,-99.99,,2013-06-04 23:22:00,
2013-06-04 19:32:00,80.0,71.0,29.99,SE,129,0.0,2.0,73,99.99,,,-99.99,,2013-06-04 23:32:00,
2013-06-04 19:42:00,80.0,71.0,29.99,SE,129,0.0,2.0,73,99.99,,,-99.99,,2013-06-04 23:42:00,
2013-06-04 19:52:00,80.0,71.0,30.00,SE,146,2.0,4.0,74,99.99,,,-99.99,,2013-06-04 23:52:00,
2013-06-04 20:02:00,79.0,71.0,30.01,North,0,0.0,0.0,76,99.99,,,-99.99,,2013-06-05 00:02:00,
2013-06-04 20:12:00,79.0,72.0,30.02,SSE,153,0.0,2.0,78,99.99,,,-99.99,,2013-06-05 00:12:00,
2013-06-04 20:22:00,79.0,72.0,30.02,SSE,153,0.0,2.0,78,99.99,,,-99.99,,2013-06-05 00:22:00,
2013-06-04 20:32:00,79.0,72.0,30.02,ESE,110,1.0,2.0,80,99.99,,,-99.99,,2013-06-05 00:32:00,
2013-06-04 20:42:00,79.0,72.0,30.02,ESE,110,1.0,2.0,80,99.99,,,-99.99,,2013-06-05 00:42:00,
2013-06-04 20:52:00,78.0,72.0,30.03,North,0,0.0,0.0,81,99.99,,,-99.99,,2013-06-05 00:52:00,
2013-06-04 21:02:00,78.0,72.0,30.03,North,0,0.0,0.0,82,99.99,,,-99.99,,2013-06-05 01:02:00,
2013-06-04 21:12:00,78.0,72.0,30.03,North,0,0.0,0.0,82,99.99,,,-99.99,,2013-06-05 01:12:00,
2013-06-04 21:22:00,78.0,73.0,30.03,North,0,0.0,0.0,84,99.99,,,-99.99,,2013-06-05 01:22:00,
2013-06-04 21:32:00,78.0,73.0,30.03,SE,128,2.0,4.0,85,99.99,,,-99.99,,2013-06-05 01:32:00,
2013-06-04 21:42:00,78.0,73.0,30.03,SE,128,2.0,4.0,85,99.99,,,-99.99,,2013-06-05 01:42:00,
2013-06-04 21:52:00,77.0,72.0,30.03,SE,131,2.0,5.0,86,99.99,,,-99.99,,2013-06-05 01:52:00,
2013-06-04 22:02:00,77.0,73.0,30.03,SE,141,1.0,3.0,87,99.99,,,-99.99,,2013-06-05 02:02:00,
2013-06-04 22:12:00,77.0,73.0,30.03,SE,141,1.0,3.0,87,99.99,,,-99.99,,2013-06-05 02:12:00,
2013-06-04 22:22:00,77.0,73.0,30.03,SE,141,0.0,3.0,88,99.99,,,-99.99,,2013-06-05 02:22:00,
2013-06-04 22:32:00,77.0,73.0,30.03,SE,131,2.0,5.0,88,99.99,,,-99.99,,2013-06-05 02:32:00,
2013-06-04 22:42:00,77.0,74.0,30.03,North,0,0.0,0.0,89,99.99,,,-99.99,,2013-06-05 02:42:00,
2013-06-04 22:52:00,77.0,74.0,30.03,North,0,0.0,0.0,89,99.99,,,-99.99,,2013-06-05 02:52:00,
2013-06-04 23:02:00,76.0,73.0,30.03,North,0,0.0,0.0,90,99.99,,,-99.99,,2013-06-05 03:02:00,
2013-06-04 23:12:00,76.0,73.0,30.03,SSE,152,1.0,2.0,90,99.99,,,-99.99,,2013-06-05 03:12:00,
2013-06-04 23:22:00,76.0,73.0,30.03,SSE,152,1.0,2.0,90,99.99,,,-99.99,,2013-06-05 03:22:00,
2013-06-04 23:33:00,76.0,73.0,30.03,SE,139,0.0,1.0,91,99.99,,,-99.99,,2013-06-05 03:33:00,
2013-06-04 23:43:00,76.0,73.0,30.03,SE,139,0.0,1.0,91,99.99,,,-99.99,,2013-06-05 03:43:00,
2013-06-04 23:53:00,76.0,73.0,30.03,North,0,0.0,0.0,91,99.99,,,-99.99,,2013-06-05 03:53:00,